Weather History for KMSO - February, 2013

Change the Weather History Date:

Monday, February 18, 2013

  Actual Average Record
Temperature  
Mean Temperature 34 °F 30 °F  
Max Temperature 42 °F 40 °F 64 °F (1930)
Min Temperature 26 °F 21 °F -11 °F (1942)
Degree Days  
Heating Degree Days 31 35  
Month to date heating degree days 567 650  
Since 1 July heating degree days 4674 5039  
Cooling Degree Days 0 0  
Month to date cooling degree days 0 0  
Year to date cooling degree days 0 0  
Moisture  
Dew Point 25 °F    
Average Humidity 69    
Maximum Humidity 100    
Minimum Humidity 38    
Precipitation  
Precipitation 0.01 in 0.03 in 0.34 in (1962)
Month to date precipitation 0.27 0.44  
Year to date precipitation 1.42 1.29  
Snow  
Snow 0.30 in - - ()
Month to date snowfall 2.6  
Year to date snowfall 14.0  
Since 1 July snowfall 35.1  
Snow Depth T in    
Sea Level Pressure  
Sea Level Pressure 30.05 in    
Wind  
Wind Speed 3 mph (ESE)    
Max Wind Speed 17 mph    
Max Gust Speed 20 mph    
Visibility 6 miles    
Events Fog , Snow    
T = Trace of Precipitation, MM = Missing Value Source: NWS Daily Summary

Daily Weather History Graph

Daily Weather History Graph

Search for Another Location

Airport or City:

Trip Planner

Search our weather history database for the weather conditions in past years. The results will help you decide how hot, cold, wet, or windy it might be!

Date:

Astronomy

Feb. 18, 2013 Rise Set
Actual Time 7:35 AM MST 6:06 PM MST
Civil Twilight 7:04 AM MST 6:37 PM MST
Nautical Twilight 6:28 AM MST 7:12 PM MST
Astronomical Twilight 5:53 AM MST 7:47 PM MST
Moon 11:43 AM MST (2/18) 2:29 AM MST (2/18)
Length of Visible Light 11h 33m
Length of Day
10h 30m
First Quarter, 59% of the Moon is Illuminated
Feb 18
First Quarter
Feb 25
Full
Mar 4
Last Quarter
Mar 11
New
Mar 19
First Quarter

Hourly Weather History & Observations

Time (MST) Temp. Windchill Dew Point Humidity Pressure Visibility Wind Dir Wind Speed Gust Speed Precip Events Conditions
12:30 AM 30.2 °F - 28.4 °F 93% 30.08 in 4.0 mi Calm Calm - 0.00 in Snow Light Snow
12:35 AM 30.2 °F 25.4 °F 28.4 °F 93% 30.08 in 1.8 mi NNW 4.6 mph - 0.00 in Snow Light Snow
12:37 AM 30.2 °F 24.3 °F 28.4 °F 93% 30.08 in 1.0 mi NNW 5.8 mph - 0.00 in Snow Light Snow
12:46 AM 30.2 °F 26.7 °F 28.4 °F 93% 30.08 in 1.5 mi NNW 3.5 mph - 0.00 in Snow Light Snow
12:48 AM 30.2 °F - 28.4 °F 93% 30.08 in 2.5 mi Calm Calm - 0.00 in Snow Light Snow
12:53 AM 30.0 °F - 28.0 °F 92% 30.16 in 8.0 mi Calm Calm - 0.00 in Snow Light Snow
1:05 AM 30.2 °F - 28.4 °F 93% 30.08 in 2.5 mi Calm Calm - 0.00 in Snow Light Snow
1:08 AM 30.2 °F - 28.4 °F 93% 30.08 in 1.2 mi Calm Calm - 0.01 in Snow Light Snow
1:19 AM 28.4 °F - 28.4 °F 100% 30.08 in 2.0 mi Calm Calm - 0.01 in Snow Light Snow
1:27 AM 28.4 °F - 28.4 °F 100% 30.08 in 6.0 mi Calm Calm - 0.01 in Snow Light Snow
1:53 AM 28.0 °F - 27.0 °F 96% 30.17 in 10.0 mi Calm Calm - 0.01 in   Overcast
2:09 AM 28.4 °F - 26.6 °F 93% 30.08 in 10.0 mi Calm Calm - N/A   Overcast
2:53 AM 28.0 °F - 28.0 °F 100% 30.17 in 6.0 mi Calm Calm - N/A   Overcast
3:53 AM 28.0 °F - 27.0 °F 96% 30.16 in 10.0 mi Calm Calm - N/A   Overcast
4:23 AM 28.4 °F - 26.6 °F 93% 30.07 in 10.0 mi Calm Calm - N/A   Overcast
4:53 AM 28.4 °F - 26.6 °F 93% 30.07 in 10.0 mi Calm Calm - N/A   Overcast
5:53 AM 28.9 °F - 27.0 °F 92% 30.16 in 6.0 mi Calm Calm - 0.00 in Snow Light Snow
6:18 AM 28.4 °F - 26.6 °F 93% 30.07 in 10.0 mi Calm Calm - 0.00 in   Overcast
6:53 AM 28.4 °F - 26.6 °F 93% 30.07 in 10.0 mi Calm Calm - N/A   Overcast
7:42 AM 26.6 °F - 24.8 °F 93% 30.07 in 2.5 mi Calm Calm - N/A   Mostly Cloudy
7:51 AM 26.6 °F - 24.8 °F 93% 30.07 in 1.0 mi Calm Calm - N/A   Mostly Cloudy
7:52 AM 26.1 °F - 25.0 °F 96% 30.16 in 0.8 mi Calm Calm - N/A   Mostly Cloudy
8:03 AM 26.6 °F - 24.8 °F 93% 30.07 in 0.2 mi Calm Calm - N/A Fog Light Freezing Fog
8:10 AM 26.6 °F - 24.8 °F 93% 30.07 in 0.5 mi Calm Calm - N/A Fog Light Freezing Fog
8:15 AM 26.6 °F - 24.8 °F 93% 30.07 in 1.2 mi Calm Calm - N/A   Overcast
8:17 AM 26.6 °F - 24.8 °F 93% 30.07 in 2.0 mi Calm Calm - N/A   Overcast
8:20 AM 26.6 °F - 24.8 °F 93% 30.07 in 3.0 mi Calm Calm - N/A   Overcast
8:29 AM 26.6 °F - 26.6 °F 100% 30.07 in 0.2 mi Calm Calm - N/A Fog Light Freezing Fog
8:53 AM 27.0 °F - 27.0 °F 100% 30.16 in 0.2 mi Calm Calm - N/A Fog Light Freezing Fog
9:20 AM 28.4 °F - 26.6 °F 93% 30.07 in 3.0 mi Calm Calm - N/A   Scattered Clouds
9:53 AM 28.9 °F - 28.0 °F 96% 30.15 in 8.0 mi Calm Calm - N/A   Scattered Clouds
10:53 AM 30.0 °F 25.2 °F 27.0 °F 88% 30.13 in 10.0 mi SE 4.6 mph - N/A   Clear
11:53 AM 34.0 °F 28.8 °F 25.0 °F 70% 30.10 in 10.0 mi SE 5.8 mph - N/A   Clear
12:53 PM 39.0 °F 32.8 °F 19.9 °F 46% 30.04 in 10.0 mi SE 9.2 mph - N/A   Clear
1:53 PM 39.9 °F 32.5 °F 21.0 °F 47% 30.01 in 10.0 mi SSE 12.7 mph - N/A   Clear
2:53 PM 39.9 °F 35.8 °F 19.9 °F 45% 29.99 in 10.0 mi SSE 5.8 mph - N/A   Clear
3:53 PM 41.0 °F 37.1 °F 18.0 °F 40% 29.96 in 10.0 mi ESE 5.8 mph - N/A   Clear
4:53 PM 41.0 °F 39.0 °F 19.0 °F 41% 29.94 in 10.0 mi ESE 3.5 mph - N/A   Clear
5:53 PM 39.0 °F 34.8 °F 21.0 °F 49% 29.93 in 10.0 mi East 5.8 mph - N/A   Clear
6:53 PM 36.0 °F - 23.0 °F 59% 29.93 in 10.0 mi Calm Calm - N/A   Mostly Cloudy
7:53 PM 34.0 °F - 23.0 °F 64% 29.93 in 10.0 mi Calm Calm - N/A   Mostly Cloudy
8:53 PM 33.1 °F - 21.9 °F 64% 29.91 in 10.0 mi Calm Calm - N/A   Scattered Clouds
9:53 PM 30.9 °F - 23.0 °F 72% 29.90 in 10.0 mi Calm Calm - N/A   Partly Cloudy
10:53 PM 30.9 °F - 23.0 °F 72% 29.89 in 10.0 mi Calm Calm - N/A   Partly Cloudy
11:53 PM 33.1 °F 26.9 °F 21.9 °F 64% 29.87 in 10.0 mi ENE 6.9 mph - N/A   Clear